Location: Worth Mountain WMA
(34.9569°N, 81.4819°W)
Time: 14:18:16
(UTC-04:00)

Daily predictions for brighter satellites

Satellite Brightness Start Highest point End
(mag) Time Altitude Azimuth Time Altitude Azimuth Time Altitude Azimuth
Delta 2 Rocket 4.4 20:52:30 10° W 20:55:18 25° SSW 20:58:11 10° SSE
Cosmos 1812 2.9 20:54:52 10° S 20:58:36 53° E 21:02:21 10° NNE
YAOGAN 6 2.8 20:56:30 10° SSE 21:00:07 56° ENE 21:03:46 10° N
Cosmos 1802 Rocket 4.1 20:55:43 10° S 21:01:54 66° E 21:08:13 10° NNE
Cosmos 1833 Rocket 3.1 20:56:50 10° SSW 21:02:26 69° WNW 21:08:03 10° NNE
H-2A R/B 4.0 21:05:01 10° E 21:06:46 12° ENE 21:08:32 10° NE
DNEPR-1 R/B 4.1 21:04:11 10° S 21:07:57 34° ESE 21:11:58 10° NE
Cosmos 2369 3.8 21:03:55 10° NNW 21:09:36 89° WSW 21:15:17 10° SSE
Abrixas rocket 3.5 21:10:15 10° S 21:12:36 19° SE 21:14:59 10° E
ERS-2 2.1 21:14:01 10° SSE 21:17:41 73° ENE 21:21:22 10° N
Gblst 52 Del rocket 4.2 21:12:38 10° NW 21:18:12 77° NE 21:22:59 14° SE
NOSS 3-2 (A) 3.6 21:12:50 10° S 21:18:17 45° ESE 21:24:10 10° NE
Cosmos 44 3.6 21:13:11 10° NNW 21:18:34 89° ENE 21:23:54 10° SSE
ATLAS CENTAUR R/B 2.8 21:15:45 10° N 21:19:45 29° NE 21:23:09 14° ESE
NOSS 3-2 (C) 4.0 21:16:39 10° S 21:21:43 32° ESE 21:27:09 10° NE
Okean 2 Rocket 4.1 21:18:33 10° NNW 21:22:47 48° W 21:27:03 10° SSW
USA 234 3.7 21:17:06 10° NE 21:23:37 69° NW 21:30:07 10° SW
Cosmos 1674 Rocket 3.5 21:20:47 10° S 21:25:13 77° E 21:29:41 10° N
Cosmos 1378 Rocket 3.9 21:21:34 10° SSE 21:25:39 42° E 21:29:44 10° NNE
Cosmos 1536 3.4 21:21:51 10° NNW 21:25:52 58° W 21:29:51 10° S
Okean 1 Rocket 3.9 21:22:50 10° NNE 21:26:45 32° ENE 21:29:27 17° SE
Resurs 01 Rocket 1.6 21:25:18 10° SSE 21:29:42 87° ENE 21:34:08 10° NNW
Atlas Centaur 2 1.6 21:26:46 10° WSW 21:30:14 38° S 21:32:11 20° ESE
Delta 168 4.1 21:28:59 10° SW 21:30:56 15° S 21:31:31 14° SSE
Tiangong 2 1.1 21:28:17 10° SW 21:31:21 52° SSE 21:34:26 10° ENE
Cosmos 2082 Rocket 3.6 21:27:15 10° SW 21:32:34 42° WNW 21:37:57 10° N
Cosmos 1777 Rocket 4.1 21:28:43 10° NNW 21:33:56 80° WSW 21:39:01 10° SSE
COSMOS 2487 2.4 21:31:52 10° SSW 21:35:21 87° WNW 21:38:52 10° NNE
NOAA 11 4.2 21:30:16 10° SSE 21:35:38 72° ENE 21:41:05 10° N
Cosmos 1975 4.0 21:33:13 10° NNE 21:36:41 27° ENE 21:38:14 21° ESE
Cosmos 2322 Rocket 3.9 21:35:30 10° NNE 21:39:09 17° NE 21:42:00 12° E
Cosmos 1184 Rocket 4.2 21:37:04 10° SSW 21:40:15 41° W 21:43:28 10° N
Cosmos 1864 Rocket 4.4 21:34:42 10° S 21:40:52 82° E 21:47:02 10° N
SL-16 R/B 3.7 21:41:30 10° N 21:45:45 21° ENE 21:48:26 15° E
Timation 2 Rocket 4.1 21:42:29 10° S 21:48:08 47° ESE 21:53:52 10° NE
USA 186 4.0 21:45:44 10° SSW 21:48:09 22° W 21:50:44 10° NW
ARGOS 3.6 21:49:17 23° SE 21:52:20 46° ENE 21:57:28 10° N
IUS-9 SRM-1 4.4 21:49:06 10° WSW 21:53:19 45° SSE 22:11:59 10° ESE
SPOT 5 4.5 21:54:04 14° E 21:54:56 15° ENE 21:57:28 10° NNE
CENTAUR R/B 3.3 21:55:22 24° ESE 21:56:09 25° ESE 22:01:09 10° NE
GPS 2-04 Rocket1 2.7 21:53:27 10° W 21:57:43 85° S 21:59:43 31° ESE
Cosmos 2360 4.2 21:52:59 10° NNW 21:58:43 85° ENE 22:02:15 24° SSE
ATLAS 3B R/B 3.4 21:58:32 10° SW 22:05:40 59° WNW 22:12:33 10° NNE
Okean 1 4.2 22:08:54 10° SSW 22:12:48 48° W 22:16:45 10° N
Delta 7925 Rocket 4.2 22:10:28 10° SW 22:14:13 28° S 22:14:13 28° S
Spot 2 Rocket 4.5 22:11:22 13° S 22:15:40 43° W 22:20:28 10° NNW
Delta 142 4.4 22:11:23 10° WSW 22:17:04 39° S 22:17:53 37° SSE
Cosmos 44 Rocket 4.4 22:12:33 10° NW 22:17:23 40° WSW 22:20:20 21° S
Cosmos 2084 3.4 22:17:49 44° SSE 22:18:45 55° ESE 22:22:51 10° NE
Terra 3.7 22:20:00 15° ENE 22:20:21 15° ENE 22:23:03 10° NNE
Cosmos 1697 Rocket 4.2 22:17:49 10° NW 22:22:42 31° WSW 22:27:06 12° SSW
Cosmos 468 Rocket 4.1 22:18:25 10° SSW 22:23:42 79° WNW 22:28:58 10° NNE
Tsikada Rocket 4.4 22:17:32 10° NNW 22:23:52 63° W 22:28:50 17° S
USA 245 3.8 22:25:00 36° NE 22:25:00 36° NE 22:27:49 10° N
Cosmos 1937 Rocket 4.0 22:22:10 10° N 22:27:00 40° ENE 22:27:55 37° E
ISS -1.4 22:25:51 10° W 22:28:38 25° NW 22:31:25 10° NNE
MetOp-B 4.0 22:27:45 39° SSE 22:29:51 88° ENE 22:35:14 10° NNW
SL-08 RB Rocket 3.6 22:29:45 52° SSE 22:30:50 87° ENE 22:35:23 10° NNW
Cosmos 2360 Rocket 3.8 22:27:39 10° N 22:31:47 20° ENE 22:33:03 19° ENE
Cosmos 1980 Rocket 3.0 22:29:17 10° NW 22:34:39 45° WSW 22:37:31 25° SSW
Cosmos 1763 Rocket 3.4 22:34:08 32° S 22:36:40 84° ESE 22:41:59 10° NNE
Cosmos 841 Rocket 3.5 22:37:56 54° SE 22:38:32 58° ESE 22:43:41 10° NNE
Meteor 2-9 Rocket 4.1 22:34:30 10° N 22:39:47 63° E 22:40:45 53° SE
SPOT 1/Viking Rocket 3.8 22:40:45 47° E 22:41:26 50° ENE 22:46:25 10° N
Cosmos 1666 3.4 22:38:10 10° NNW 22:41:55 48° W 22:42:32 43° SW
Cosmos 1743 3.3 22:39:38 10° NNW 22:43:21 50° W 22:43:46 47° WSW
H-2A R/B 2.1 22:44:12 46° SSW 22:45:32 67° WSW 22:50:30 10° NNW
OAO 1 Rocket 4.3 22:40:32 10° WSW 22:45:52 84° S 22:47:11 53° E
Meteor 2-4 Rocket 3.5 22:45:42 43° S 22:47:32 87° W 22:53:03 10° N
Cosmos 858 Rocket 4.3 22:42:56 10° NNW 22:48:09 76° ENE 22:48:49 65° SE
Abrixas rocket 3.6 22:45:49 10° WSW 22:48:33 37° NW 22:48:33 37° NW
CZ-2C R/B 4.4 22:45:19 10° NE 22:47:57 19° ENE 22:47:57 19° ENE
DMSP B5D2-2 4.0 22:45:14 10° NNE 22:50:33 88° WNW 22:52:04 49° SSW
Cosmos 1340 Rocket 3.1 22:51:32 62° NNE 22:51:32 62° NNE 22:54:58 10° N
Cosmos 1833 4.2 22:53:11 60° SE 22:53:32 61° ESE 22:59:10 10° NNE
Helios 1B rocket 3.0 22:49:34 10° NNE 22:52:46 49° NE 22:52:46 49° NE
Cosmos 1455 Rocket 3.1 22:52:07 10° N 22:56:06 71° NNE 22:56:06 71° NNE
ATLAS CENTAUR R/B 3.1 22:54:42 10° NW 22:58:40 28° WSW 22:59:25 27° SW
Cosmos 1242 Rocket 4.1 22:59:24 10° NNW 23:02:29 32° W 23:02:29 32° W
Cosmos 1898 Rocket 3.8 22:59:33 10° NNW 23:04:46 59° WSW 23:05:31 53° SW
Tiangong 2 3.7 23:05:23 10° W 23:06:45 20° WNW 23:06:45 20° WNW
ERS-1 Rocket 3.6 23:07:59 43° SW 23:08:49 48° W 23:13:40 10° NNW
NOSS 3-3 (C) 4.5 23:05:06 10° NNW 23:12:50 81° WSW 23:15:04 53° SSE
BREEZE M DEB (TANK) 3.0 23:07:05 10° NW 23:13:13 58° N 23:13:13 58° N
Meteor 1-15 Rocket 4.2 23:11:06 10° N 23:16:45 66° ENE 23:16:45 66° ENE
Cosmos 292 Rocket 4.1 23:16:52 60° W 23:17:03 61° WNW 23:21:46 10° N
Cosmos 1544 Rocket 4.4 23:18:56 10° NNW 23:22:46 46° WNW 23:22:46 46° WNW
Cosmos 2322 Rocket 2.4 23:18:05 10° NNW 23:23:36 59° WSW 23:23:50 59° WSW
SL-16 R/B 2.7 23:24:38 10° NNW 23:30:05 49° WSW 23:30:19 48° WSW
Cosmos 2150 Rocket 4.2 23:25:24 10° NNW 23:30:25 68° WNW 23:30:25 68° WNW
Nadezhda 4 Rocket 3.9 23:25:23 10° N 23:31:41 74° E 23:31:47 74° E
SPOT 5 3.8 23:33:17 37° WNW 23:33:17 37° WNW 23:36:48 10° NNW
CZ-2C R/B 3.4 23:41:02 63° NNE 23:41:02 63° NNE 23:45:43 10° N
Nimbus 7 Rocket 4.4 23:36:10 10° N 23:42:02 78° WNW 23:42:12 77° W
SJ 16-02 2.7 23:39:18 10° N 23:42:00 35° N 23:42:00 35° N
CENTAUR R/B 3.3 23:42:22 20° WSW 23:46:16 46° NW 23:52:42 10° NNE
